When you browse on this site, cookies collect data to enhance your experience and personalize the content and advertising you see.
Visit our Privacy Policy to learn more. By continuing to use the site, you agree to this use of cookies and data.
  • In Czech Republic
  • List of Countries
  • For 7 days
  • Water Temperature
  • Weather Map
  • Weather Widgets
  • user-avatar
    Login

    Hourly Weather Fier

    Today, 24 February, Monday

    Time Temperature Precipitation Wind Pressure Humidity
    00:00 +10°C° 0 mm 1 mps 766 mmHg 57%
    01:00 +10°C° 0 mm 1 mps 766 mmHg 55%
    02:00 +10°C° 0 mm 1 mps 765 mmHg 54%
    03:00 +9°C° 0 mm 1 mps 764 mmHg 53%
    04:00 +9°C° 0 mm 1 mps 764 mmHg 53%
    05:00 +9°C° 0 mm 1 mps 764 mmHg 53%
    06:00 +9°C° 0 mm 1 mps 764 mmHg 53%
    07:00 +10°C° 0 mm 1 mps 764 mmHg 53%
    08:00 +11°C° 0 mm 1 mps 764 mmHg 50%
    09:00 +13°C° 0 mm 1 mps 763 mmHg 47%
    10:00 +15°C° 0 mm 2 mps 763 mmHg 44%
    11:00 +16°C° 0 mm 2 mps 763 mmHg 45%
    12:00 +16°C° 0 mm 3 mps 763 mmHg 47%
    13:00 +17°C° 0 mm 3 mps 763 mmHg 48%
    14:00 +17°C° 0 mm 3 mps 763 mmHg 53%
    15:00 +16°C° 0 mm 3 mps 762 mmHg 58%
    16:00 +16°C° 0 mm 3 mps 762 mmHg 62%
    17:00 +13°C° 0 mm 3 mps 763 mmHg 69%
    18:00 +12°C° 0 mm 3 mps 763 mmHg 76%
    19:00 +12°C° 0 mm 2 mps 763 mmHg 82%
    20:00 +10°C° 0 mm 2 mps 763 mmHg 81%
    21:00 +10°C° 0 mm 2 mps 763 mmHg 80%
    22:00 +11°C° 0 mm 1 mps 763 mmHg 79%
    23:00 +11°C° 0 mm 1 mps 763 mmHg 77%

    Tomorrow, 25 February, Tuesday

    Time Temperature Precipitation Wind Pressure Humidity
    00:00 +11°C° 0 mm 1 mps 763 mmHg 75%
    01:00 +11°C° 0 mm 1 mps 763 mmHg 73%
    02:00 +11°C° 0 mm 1 mps 762 mmHg 72%
    03:00 +11°C° 0 mm 1 mps 762 mmHg 70%
    04:00 +11°C° 0 mm 1 mps 762 mmHg 69%
    05:00 +11°C° 0 mm 1 mps 761 mmHg 69%
    06:00 +10°C° 0 mm 2 mps 761 mmHg 69%
    07:00 +10°C° 0 mm 2 mps 761 mmHg 70%
    08:00 +12°C° 0 mm 3 mps 761 mmHg 66%
    09:00 +14°C° 0 mm 3 mps 761 mmHg 62%
    10:00 +17°C° 0 mm 4 mps 761 mmHg 58%
    11:00 +17°C° 0 mm 5 mps 761 mmHg 57%
    12:00 +19°C° 0 mm 5 mps 760 mmHg 56%
    13:00 +19°C° 0 mm 6 mps 760 mmHg 54%
    14:00 +19°C° 0 mm 6 mps 759 mmHg 57%
    15:00 +17°C° 0 mm 6 mps 759 mmHg 60%
    16:00 +17°C° 0 mm 7 mps 758 mmHg 63%
    17:00 +16°C° 0 mm 7 mps 758 mmHg 67%
    18:00 +14°C° 0 mm 6 mps 759 mmHg 71%
    19:00 +13°C° 0 mm 6 mps 759 mmHg 76%
    20:00 +13°C° 0 mm 6 mps 758 mmHg 77%
    21:00 +11°C° 0 mm 6 mps 758 mmHg 78%
    22:00 +11°C° 0 mm 6 mps 758 mmHg 80%
    23:00 +11°C° 0 mm 6 mps 758 mmHg 80%

    Day after tomorrow, 26 February, Wednesday

    Time Temperature Precipitation Wind Pressure Humidity
    00:00 +10°C° 0 mm 6 mps 758 mmHg 81%
    01:00 +10°C° 0 mm 6 mps 757 mmHg 82%
    02:00 +10°C° 0 mm 6 mps 757 mmHg 82%
    03:00 +10°C° 0 mm 6 mps 756 mmHg 83%
    04:00 +9°C° 0 mm 6 mps 756 mmHg 83%
    05:00 +9°C° 0 mm 6 mps 755 mmHg 83%
    06:00 +10°C° 0 mm 6 mps 755 mmHg 82%
    07:00 +10°C° 0 mm 6 mps 755 mmHg 82%
    08:00 +11°C° 0 mm 6 mps 755 mmHg 75%
    09:00 +14°C° 0 mm 6 mps 754 mmHg 69%
    10:00 +16°C° 0 mm 7 mps 754 mmHg 63%
    11:00 +16°C° 0 mm 8 mps 754 mmHg 61%
    12:00 +17°C° 0 mm 8 mps 753 mmHg 59%
    13:00 +17°C° 0 mm 9 mps 753 mmHg 57%
    14:00 +17°C° 0 mm 9 mps 752 mmHg 59%
    15:00 +16°C° 0 mm 9 mps 752 mmHg 62%
    16:00 +16°C° 0 mm 9 mps 751 mmHg 65%
    17:00 +15°C° 0.1 mm 8 mps 751 mmHg 69%
    18:00 +13°C° 0.1 mm 8 mps 751 mmHg 73%
    19:00 +12°C° 0.1 mm 8 mps 751 mmHg 77%
    20:00 +12°C° 0.2 mm 7 mps 751 mmHg 77%
    21:00 +12°C° 0.2 mm 7 mps 751 mmHg 76%
    22:00 +11°C° 0.2 mm 7 mps 752 mmHg 76%
    23:00 +11°C° 0.2 mm 7 mps 751 mmHg 74%

    27 February, Thursday

    Time Temperature Precipitation Wind Pressure Humidity
    00:00 +11°C° 0.2 mm 8 mps 751 mmHg 71%
    01:00 +10°C° 0.2 mm 8 mps 751 mmHg 69%
    02:00 +10°C° 1 mm 9 mps 751 mmHg 70%
    03:00 +8°C° 1 mm 9 mps 750 mmHg 71%
    04:00 +7°C° 1 mm 10 mps 750 mmHg 72%
    05:00 +7°C° 0.1 mm 9 mps 750 mmHg 67%
    06:00 +6°C° 0.1 mm 8 mps 750 mmHg 61%
    07:00 +6°C° 0.1 mm 7 mps 751 mmHg 56%
    08:00 +6°C° 0.3 mm 7 mps 751 mmHg 60%
    09:00 +6°C° 0.3 mm 7 mps 751 mmHg 64%
    10:00 +8°C° 0.3 mm 7 mps 752 mmHg 68%
    11:00 +8°C° 0.3 mm 7 mps 752 mmHg 72%
    12:00 +7°C° 0.3 mm 6 mps 753 mmHg 76%
    13:00 +7°C° 0.3 mm 6 mps 753 mmHg 79%
    14:00 +6°C° 0.3 mm 7 mps 754 mmHg 77%
    15:00 +6°C° 0.3 mm 7 mps 755 mmHg 75%
    16:00 +6°C° 0.3 mm 8 mps 756 mmHg 73%
    17:00 +6°C° 0.2 mm 8 mps 757 mmHg 71%
    18:00 +6°C° 0.2 mm 7 mps 758 mmHg 70%
    19:00 +7°C° 0.2 mm 6 mps 759 mmHg 68%
    20:00 +5°C° 0 mm 6 mps 759 mmHg 68%
    21:00 +6°C° 0 mm 5 mps 760 mmHg 67%
    22:00 +6°C° 0 mm 4 mps 761 mmHg 67%
    23:00 +5°C° 0 mm 3 mps 761 mmHg 67%

    28 February, Friday

    Time Temperature Precipitation Wind Pressure Humidity
    00:00 +5°C° 0 mm 3 mps 761 mmHg 67%
    01:00 +6°C° 0 mm 2 mps 762 mmHg 67%
    02:00 +6°C° 0 mm 2 mps 761 mmHg 67%
    03:00 +6°C° 0 mm 2 mps 761 mmHg 67%
    04:00 +6°C° 0 mm 2 mps 761 mmHg 67%
    05:00 +6°C° 0 mm 2 mps 762 mmHg 68%
    06:00 +5°C° 0 mm 3 mps 762 mmHg 68%
    07:00 +5°C° 0 mm 3 mps 762 mmHg 68%
    08:00 +8°C° 0 mm 3 mps 762 mmHg 62%
    09:00 +9°C° 0 mm 3 mps 763 mmHg 57%
    10:00 +11°C° 0 mm 3 mps 763 mmHg 52%
    11:00 +11°C° 0 mm 4 mps 763 mmHg 54%
    12:00 +11°C° 0 mm 4 mps 763 mmHg 56%
    13:00 +12°C° 0 mm 4 mps 762 mmHg 58%
    14:00 +12°C° 0 mm 4 mps 762 mmHg 59%
    15:00 +12°C° 0 mm 4 mps 762 mmHg 60%
    16:00 +12°C° 0 mm 4 mps 762 mmHg 61%
    17:00 +11°C° 0 mm 4 mps 762 mmHg 66%
    18:00 +10°C° 0 mm 4 mps 762 mmHg 70%
    19:00 +8°C° 0 mm 4 mps 763 mmHg 75%
    20:00 +7°C° 0 mm 4 mps 763 mmHg 75%
    21:00 +7°C° 0 mm 4 mps 763 mmHg 76%
    22:00 +7°C° 0 mm 5 mps 763 mmHg 76%
    23:00 +7°C° 0 mm 5 mps 763 mmHg 76%

    29 February, Saturday

    Time Temperature Precipitation Wind Pressure Humidity
    00:00 +8°C° 0 mm 5 mps 762 mmHg 76%
    01:00 +8°C° 0 mm 5 mps 762 mmHg 75%
    02:00 +8°C° 0 mm 5 mps 762 mmHg 77%
    03:00 +8°C° 0 mm 5 mps 762 mmHg 78%
    04:00 +8°C° 0 mm 5 mps 761 mmHg 80%
    05:00 +8°C° 0 mm 5 mps 761 mmHg 80%
    06:00 +8°C° 0 mm 5 mps 761 mmHg 81%
    07:00 +8°C° 0 mm 5 mps 761 mmHg 82%
    08:00 +10°C° 0 mm 5 mps 761 mmHg 76%
    09:00 +13°C° 0 mm 5 mps 761 mmHg 70%
    10:00 +15°C° 0 mm 6 mps 760 mmHg 63%
    11:00 +16°C° 0 mm 6 mps 760 mmHg 61%
    12:00 +16°C° 0 mm 7 mps 759 mmHg 58%
    13:00 +17°C° 0 mm 7 mps 759 mmHg 55%
    14:00 +17°C° 0 mm 8 mps 758 mmHg 58%
    15:00 +16°C° 0 mm 8 mps 758 mmHg 61%
    16:00 +16°C° 0 mm 8 mps 757 mmHg 63%
    17:00 +15°C° 0 mm 8 mps 757 mmHg 68%
    18:00 +13°C° 0 mm 8 mps 757 mmHg 73%
    19:00 +12°C° 0 mm 8 mps 757 mmHg 78%
    20:00 +11°C° 0 mm 8 mps 757 mmHg 79%
    21:00 +11°C° 0 mm 8 mps 757 mmHg 80%
    22:00 +11°C° 0 mm 7 mps 757 mmHg 80%
    23:00 +11°C° 0 mm 8 mps 757 mmHg 80%
    Show more